Find Starlink 32759

NORAD ID: 62751 Int'l Des: 2025-014 Owner: SPXS Country: US Constellation: starlink operational
LEOCIRCULAR

Current View

Loading 3D Globe...

About Starlink 32759

Starlink 32759 (NORAD 62751) is a starlink constellation satellite (v2 mini) launched Jan 21, 2025 by SPXS of US. It operates in LEO, CIRCULAR orbit with a mass of 730.00 kg.

About Starlink 32759

Description loading...

Upcoming Passes

Passes for default location (London). Set your location on the main map for personalized predictions.

Altitude History

Loading altitude history...

Two-Line Element Set

1 62751U 25014S 26167.15678458 .00016894 00000-0 62181-3 0 9998
2 62751 42.9973 322.0209 0000332 226.6633 133.4191 15.27590490 78279
Epoch: Jun 16, 2026 • Age: 20 hours

Current Status

Altitude 483.3 km
Velocity 7.63 km/s
Sub-Earth Point -4.83°S, 113.8°W
Launch Date Jan 21, 2025
Age 1.3 years
Type internet

Technical Details

Classification Payload
Mass 730.00 kg
Dry Mass 700.00 kg
Total Mass 730.00 kg
Length 0.30 m
Diameter 4.10 m
Span 29.00 m
Shape Box + pan
Manufacturer SPXS
Bus Type Starlink V2M
Phase Status In Orbit
Owner/State SPXS/US

Most Searched